Flag for U.S.A. Weather past 2 weeks in Spokane, Washington, U.S.A.

Now
72 °F

Sunny.


Feels Like: 77 °F
Forecast: 65 / 87 °F
Wind: 8 mph from Southwest

Location: Felts Field

Current Time: Aug 4, 2015 at 9:07:18 AM

Latest Report: Aug 4, 2015 at 7:53 AM


Visibility: 10 mi

Pressure: 29.86 "Hg (27.96 "Hg at 569m altitude)

Humidity: 40%

Dew point: 46 °F

Location of SpokaneLocation

Historic Weather in Spokane — Graph

°F

Spokane temperature yesterday

Maximum temperature yesterday: 92 °F (at 4:53 PM)
Minimum temperature yesterday: 60 °F (at 5:53 AM)
Average temperature yesterday: 78 °F

Past Weeks' High & Low Weather Summary

 TemperatureHumidityPressure
High101 °F (Jul 31, 3:53 PM)77% (Jul 28, 5:53 AM)30.20 "Hg (Jul 28, 5:53 AM)
Low52 °F (Jul 28, 5:53 AM)6% (Jul 31, 6:53 PM)29.67 "Hg (Jul 21, 11:53 PM)
Average74 °F33%29.91 "Hg
* Reported Jul 20 6:53 AM — Aug 4 6:53 AM, Spokane, Weather by CustomWeather, © 2015

Note: Actual official high and low records may vary slightly from our data, if they occured in-between our weather recording intervals... More about our weather records

Advertising

Spokane weather history for previous 24 hours

 ConditionsComfort  
Time TempWeatherWind HumidityBarometerVisibility
6:53 AM
Tue, Aug 4
70 °FSunny.9 mph42%29.85 "Hg10 mi
5:53 AM71 °FClear.5 mph41%29.83 "Hg10 mi
4:53 AM68 °FClear.No wind49%29.82 "Hg10 mi
3:53 AM66 °FClear.No wind50%29.82 "Hg10 mi
2:53 AM68 °FClear.3 mph47%29.81 "Hg10 mi
1:53 AM73 °FPassing clouds.No wind43%29.80 "Hg10 mi
12:53 AM74 °FClear.3 mph40%29.80 "Hg9 mi
11:53 PM
Mon, Aug 3
75 °FOvercast.3 mph37%29.79 "Hg10 mi
10:53 PM77 °FPassing clouds.3 mph36%29.79 "Hg10 mi
9:53 PM80 °FOvercast.No wind31%29.80 "Hg10 mi
8:53 PM82 °FOvercast.3 mph28%29.80 "Hg9 mi
7:53 PM84 °FMostly cloudy.13 mph26%29.79 "Hg7 mi
6:53 PM87 °FPassing clouds.16 mph21%29.76 "Hg10 mi
5:53 PM88 °FSunny.10 mph20%29.75 "Hg6 mi
4:53 PM92 °FSunny.14 mph18%29.74 "Hg7 mi
3:53 PM90 °FSunny.13 mph19%29.73 "Hg7 mi
2:53 PM88 °FSunny.No wind21%29.75 "Hg10 mi
1:53 PM84 °FSunny.3 mph23%29.76 "Hg10 mi
12:53 PM86 °FSunny.10 mph21%29.75 "Hg7 mi
11:53 AM86 °FSunny.6 mph21%29.75 "Hg6 mi
10:53 AM84 °FSunny.No wind26%29.75 "Hg6 mi
9:53 AM79 °FSunny.No wind32%29.76 "Hg5 mi
Weather by CustomWeather, © 2015

See weather overviewHow to use our weather pages